Weather History for LLBG - December, 2011

Change the Weather History Date:

Tuesday, December 13, 2011

  Actual Average Record
Temperature  
Mean Temperature 55 °F -  
Max Temperature 68 °F 63 °F 78 °F (2003)
Min Temperature 42 °F 49 °F 39 °F (2013)
Degree Days  
Heating Degree Days 10    
Growing Degree Days 5 (Base 50)    
Moisture  
Dew Point 40 °F    
Average Humidity 58    
Maximum Humidity 76    
Minimum Humidity 30    
Precipitation  
Precipitation 0.00 in - - ()
Sea Level Pressure  
Sea Level Pressure 30.15 in    
Wind  
Wind Speed 2 mph ()    
Max Wind Speed 7 mph    
Max Gust Speed -    
Visibility 5.8 miles    
Events      
Averages and records for this station are not official NWS values.
T = Trace of Precipitation, MM = Missing Value Source: Averaged Metar Reports

Daily Weather History Graph

Daily Weather History Graph

Search for Another Location

Airport or City:

Trip Planner

Search our weather history database for the weather conditions in past years. The results will help you decide how hot, cold, wet, or windy it might be!

Date:

Astronomy

Dec. 13, 2011 Rise Set
Actual Time 6:31 AM IST 4:36 PM IST
Civil Twilight 6:04 AM IST 5:03 PM IST
Nautical Twilight 5:34 AM IST 5:34 PM IST
Astronomical Twilight 5:04 AM IST 6:04 PM IST
Moon 7:24 PM IST (12/13) 8:33 AM IST (12/13)
Length of Visible Light 10h 59m
Length of Day
10h 05m
Waning Gibbous, 92% of the Moon is Illuminated
Dec 13
Waning Gibbous
Dec 18
Last Quarter
Dec 24
New
Jan 1
First Quarter
Jan 9
Full

Hourly Weather History & Observations

Time (IST) Temp. Windchill Dew Point Humidity Pressure Visibility Wind Dir Wind Speed Gust Speed Precip Events Conditions
12:50 AM 46.4 °F 45.2 °F 39.2 °F 76% 30.18 in - ESE 3.5 mph - N/A   Clear
1:50 AM 46.4 °F - 37.4 °F 71% 30.18 in - North 2.3 mph - N/A   Clear
2:00 AM 46 °F - 38 °F 64% 30.19 in 6 mi North 2.3 mph - -   Clear
2:50 AM 46.4 °F - 37.4 °F 71% 30.15 in - East 1.2 mph - N/A   Clear
3:50 AM 46.4 °F 45.2 °F 37.4 °F 71% 30.15 in - East 3.5 mph - N/A   Clear
4:50 AM 44.6 °F - 35.6 °F 71% 30.15 in - NNE 2.3 mph - N/A   Clear
5:50 AM 42.8 °F - 35.6 °F 76% 30.18 in - NNE 2.3 mph - N/A   Clear
6:50 AM 44.6 °F - 35.6 °F 71% 30.18 in - ENE 2.3 mph - N/A   Clear
7:50 AM 48.2 °F - 37.4 °F 66% 30.18 in - Variable 1.2 mph - N/A   Clear
8:00 AM 48 °F - 38 °F 58% 30.20 in 6 mi 1.2 mph - -   Clear
8:50 AM 51.8 °F - 37.4 °F 58% 30.18 in - NE 2.3 mph - N/A   Clear
9:50 AM 59.0 °F - 39.2 °F 48% 30.18 in - Variable 1.2 mph - N/A   Clear
10:50 AM 64.4 °F - 39.2 °F 40% 30.18 in - Variable 1.2 mph - N/A   Clear
11:50 AM 66.2 °F - 35.6 °F 32% 30.12 in - Variable 1.2 mph - N/A   Clear
12:50 PM 68.0 °F - 35.6 °F 30% 30.12 in - Variable 1.2 mph - N/A   Clear
1:50 PM 66.2 °F - 42.8 °F 43% 30.09 in 5.6 mi West 6.9 mph - N/A   Unknown
2:00 PM 66 °F - 43 °F 31% 30.12 in 6 mi West 6.9 mph - -   Haze
2:50 PM 64.4 °F - 42.8 °F 45% 30.12 in 5.6 mi WNW 4.6 mph - N/A   Unknown
3:50 PM 62.6 °F - 42.8 °F 48% 30.12 in 5.6 mi West 4.6 mph - N/A   Unknown
4:50 PM 62.6 °F - 42.8 °F 48% 30.12 in 5.6 mi WNW 1.2 mph - N/A   Unknown
5:50 PM 60.8 °F - 42.8 °F 52% 30.12 in - East 3.5 mph - N/A   Clear
6:50 PM 57.2 °F - 44.6 °F 63% 30.12 in - SE 1.2 mph - N/A   Clear
7:50 PM 57.2 °F - 44.6 °F 63% 30.12 in - SE 2.3 mph - N/A   Clear
8:00 PM 57 °F - 44 °F 52% 30.15 in 6 mi SE 2.3 mph - -   Clear
8:50 PM 55.4 °F - 44.6 °F 67% 30.15 in - Calm Calm - N/A   Clear
9:50 PM 55.4 °F - 44.6 °F 67% 30.12 in - ENE 2.3 mph - N/A   Clear
10:50 PM 53.6 °F - 42.8 °F 67% 30.12 in - ENE 2.3 mph - N/A   Clear
11:50 PM 51.8 °F - 42.8 °F 71% 30.12 in - Variable 1.2 mph - N/A   Clear